Plusieurs avertissements en vigueur   plus d'informations


d'avertissement pour Orages more information blitzortung!


d'avertissement pour Pluie more information rain snow radar


Visitez nos sites météorologiques autres:

Template documentation
and downloads

And another site



Weather Underground Historique Text

par jour Résumé pour mai 27, 2018 Les unités:  métriques    impériales   les deux
« Précédente Jour
Suivant Jour »
par jour Par semaine mensuel Annuel personnalisé
  actuel: élevé: Basse: Moyenne:
Température: -6.3 °C -17.8 °C -6.9 °C -4.9 °C
Point de rosée: -9.4 °C -17.8 °C -9.8 °C -8.5 °C
Humidité: 70 % Humidity % 48 % 67 %
Vitesse du vent: 0 km/h 0 km/h 0 km/h 1.6 km/h
Rafale de vent: 15.6 km/h 0 km/h - -
Vent:Calm - - SSE
Pression baro: 34384.8 hPa 0 hPa 34361.1 hPa -
Précipitations: 0 mm      
Historical Graphs
 
 
Les données tabulaires pour mai 27, 2018
Temps Température Point de rosée Pression baro Vent Vitesse du vent Rafale de vent Humidité Les précipitations (horaires)
-17.8 °C -17.8 °C 0 hPa Calm     Humidity % 0 mm
00:02 -5.9 °C -9.4 °C 34452.6 hPa Calm   5.1 km/h 67 % 0 mm
00:07 -5.9 °C -9.4 °C 34452.6 hPa Calm   5.1 km/h 67 % 0 mm
00:12 -5.9 °C -9.5 °C 34452.6 hPa ESE 2.6 km/h 7.7 km/h 67 % 0 mm
00:17 -5.9 °C -9.5 °C 34452.6 hPa Calm   10.3 km/h 67 % 0 mm
00:22 -6 °C -9.6 °C 34452.6 hPa Calm   10.3 km/h 67 % 0 mm
00:27 -6 °C -9.6 °C 34452.6 hPa Calm   10.3 km/h 67 % 0 mm
00:32 -6.1 °C -9.6 °C 34452.6 hPa Calm   7.7 km/h 67 % 0 mm
00:37 -6.1 °C -9.4 °C 34452.6 hPa Calm   5.1 km/h 68 % 0 mm
00:42 -6.1 °C -9.5 °C 34452.6 hPa Calm   5.1 km/h 68 % 0 mm
00:47 -6.2 °C -9.6 °C 34452.6 hPa Calm     68 % 0 mm
00:52 -6.2 °C -9.6 °C 34452.6 hPa Calm     68 % 0 mm
00:57 -6.2 °C -9.5 °C 34452.6 hPa Calm     69 % 0 mm
01:02 -6.3 °C -9.6 °C 34462.7 hPa ESE 5.1 km/h 5.1 km/h 69 % 0 mm
01:07 -6.3 °C -9.6 °C 34462.7 hPa Calm   5.1 km/h 69 % 0 mm
01:12 -6.3 °C -9.6 °C 34452.6 hPa Calm   5.1 km/h 69 % 0 mm
01:17 -6.3 °C -9.6 °C 34452.6 hPa Calm   5.1 km/h 69 % 0 mm
01:22 -6.3 °C -9.6 °C 34452.6 hPa Calm   12.9 km/h 69 % 0 mm
01:27 -6.3 °C -9.6 °C 34442.4 hPa Calm   12.9 km/h 69 % 0 mm
01:32 -6.3 °C -9.6 °C 34442.4 hPa Calm   12.9 km/h 69 % 0 mm
01:37 -6.3 °C -9.6 °C 34442.4 hPa Calm   5.1 km/h 69 % 0 mm
01:42 -6.3 °C -9.6 °C 34442.4 hPa Calm   5.1 km/h 69 % 0 mm
01:47 -6.4 °C -9.6 °C 34442.4 hPa Calm   5.1 km/h 70 % 0 mm
01:52 -6.4 °C -9.6 °C 34442.4 hPa Calm   5.1 km/h 70 % 0 mm
01:57 -6.4 °C -9.6 °C 34442.4 hPa Calm   5.1 km/h 70 % 0 mm
02:02 -6.5 °C -9.7 °C 34442.4 hPa Calm   2.6 km/h 70 % 0 mm
02:07 -6.5 °C -9.5 °C 34442.4 hPa Calm   2.6 km/h 71 % 0 mm
02:12 -6.6 °C -9.7 °C 34442.4 hPa Calm   2.6 km/h 70 % 0 mm
02:18 -6.6 °C -9.6 °C 34442.4 hPa Calm   7.7 km/h 71 % 0 mm
02:23 -6.6 °C -9.6 °C 34442.4 hPa Calm   7.7 km/h 71 % 0 mm
02:28 -6.6 °C -9.6 °C 34442.4 hPa Calm   7.7 km/h 71 % 0 mm
02:33 -6.6 °C -9.6 °C 34442.4 hPa Calm   2.6 km/h 71 % 0 mm
02:38 -6.6 °C -9.6 °C 34442.4 hPa Calm   2.6 km/h 71 % 0 mm
02:43 -6.6 °C -9.6 °C 34428.8 hPa Calm   2.6 km/h 71 % 0 mm
02:48 -6.6 °C -9.6 °C 34428.8 hPa Calm   18.2 km/h 71 % 0 mm
02:53 -6.6 °C -9.6 °C 34428.8 hPa Calm   18.2 km/h 71 % 0 mm
02:58 -6.6 °C -9.7 °C 34428.8 hPa Calm   18.2 km/h 70 % 0 mm
03:03 -6.6 °C -9.7 °C 34428.8 hPa Calm   7.7 km/h 70 % 0 mm
03:08 -6.6 °C -9.7 °C 34428.8 hPa Calm   5.1 km/h 70 % 0 mm
03:13 -6.5 °C -9.7 °C 34428.8 hPa Calm   5.1 km/h 70 % 0 mm
03:18 -6.5 °C -9.7 °C 34428.8 hPa Calm   7.7 km/h 70 % 0 mm
03:23 -6.5 °C -9.7 °C 34428.8 hPa Calm   7.7 km/h 70 % 0 mm
03:28 -6.5 °C -9.7 °C 34428.8 hPa Calm   7.7 km/h 70 % 0 mm
03:33 -6.5 °C -9.7 °C 34428.8 hPa Calm     70 % 0 mm
03:38 -6.6 °C -9.7 °C 34428.8 hPa Calm   10.3 km/h 70 % 0 mm
03:43 -6.6 °C -9.7 °C 34428.8 hPa Calm   10.3 km/h 70 % 0 mm
03:48 -6.6 °C -9.7 °C 34418.7 hPa Calm   10.3 km/h 70 % 0 mm
03:53 -6.6 °C -9.7 °C 34418.7 hPa Calm   2.6 km/h 70 % 0 mm
03:58 -6.7 °C -9.8 °C 34418.7 hPa Calm   5.1 km/h 70 % 0 mm
04:03 -6.7 °C -9.8 °C 34418.7 hPa Calm   5.1 km/h 70 % 0 mm
04:08 -6.7 °C -9.8 °C 34418.7 hPa Calm   5.1 km/h 70 % 0 mm
04:13 -6.7 °C -9.8 °C 34418.7 hPa Calm   2.6 km/h 70 % 0 mm
04:18 -6.7 °C -9.8 °C 34418.7 hPa Calm   7.7 km/h 70 % 0 mm
04:23 -6.7 °C -9.8 °C 34418.7 hPa Calm   7.7 km/h 70 % 0 mm
04:28 -6.7 °C -9.8 °C 34418.7 hPa Calm   10.3 km/h 70 % 0 mm
04:34 -6.7 °C -9.8 °C 34405.1 hPa Calm   10.3 km/h 70 % 0 mm
04:39 -6.7 °C -9.7 °C 34405.1 hPa Calm   10.3 km/h 71 % 0 mm
04:44 -6.7 °C -9.7 °C 34405.1 hPa Calm   7.7 km/h 71 % 0 mm
04:49 -6.7 °C -9.7 °C 34405.1 hPa Calm   7.7 km/h 71 % 0 mm
04:54 -6.7 °C -9.7 °C 34405.1 hPa Calm   7.7 km/h 71 % 0 mm
04:59 -6.7 °C -9.7 °C 34405.1 hPa Calm   7.7 km/h 71 % 0 mm
05:04 -6.7 °C -9.7 °C 34405.1 hPa Calm     71 % 0 mm
05:09 -6.7 °C -9.6 °C 34405.1 hPa Calm     72 % 0 mm
05:14 -6.7 °C -9.6 °C 34395 hPa Calm     72 % 0 mm
05:19 -6.8 °C -9.7 °C 34395 hPa Calm     72 % 0 mm
05:24 -6.8 °C -9.7 °C 34395 hPa Calm   2.6 km/h 72 % 0 mm
05:29 -6.8 °C -9.7 °C 34395 hPa Calm   2.6 km/h 72 % 0 mm
05:34 -6.8 °C -9.7 °C 34395 hPa Calm   2.6 km/h 72 % 0 mm
05:39 -6.8 °C -9.7 °C 34395 hPa Calm   2.6 km/h 72 % 0 mm
05:44 -6.8 °C -9.6 °C 34395 hPa Calm   7.7 km/h 73 % 0 mm
05:49 -6.8 °C -9.6 °C 34395 hPa Calm   7.7 km/h 73 % 0 mm
05:54 -6.8 °C -9.6 °C 34395 hPa Calm   7.7 km/h 73 % 0 mm
05:59 -6.9 °C -9.7 °C 34395 hPa Calm   2.6 km/h 73 % 0 mm
06:04 -6.9 °C -9.7 °C 34395 hPa Calm     73 % 0 mm
06:09 -6.9 °C -9.7 °C 34405.1 hPa Calm     73 % 0 mm
06:14 -6.9 °C -9.6 °C 34405.1 hPa Calm     74 % 0 mm
06:19 -6.9 °C -9.6 °C 34405.1 hPa Calm     74 % 0 mm
06:24 -6.9 °C -9.6 °C 34405.1 hPa Calm     74 % 0 mm
06:29 -6.9 °C -9.5 °C 34405.1 hPa Calm     75 % 0 mm
06:34 -6.9 °C -9.4 °C 34405.1 hPa Calm     75 % 0 mm
06:39 -6.8 °C -9.3 °C 34405.1 hPa Calm     76 % 0 mm
06:44 -6.8 °C -9.3 °C 34418.7 hPa Calm     75 % 0 mm
06:49 -6.7 °C -9.3 °C 34418.7 hPa Calm     75 % 0 mm
06:55 -6.6 °C -9.2 °C 34405.1 hPa Calm     75 % 0 mm
07:00 -6.5 °C -9.1 °C 34418.7 hPa Calm     75 % 0 mm
07:05 -6.3 °C -8.8 °C 34418.7 hPa Calm     75 % 0 mm
07:10 -6.2 °C -8.6 °C 34405.1 hPa Calm     76 % 0 mm
07:15 -6.2 °C -8.7 °C 34418.7 hPa Calm     75 % 0 mm
07:20 -6.2 °C -8.8 °C 34418.7 hPa Calm   7.7 km/h 74 % 0 mm
07:25 -6.2 °C -8.8 °C 34405.1 hPa Calm   7.7 km/h 74 % 0 mm
07:30 -6.2 °C -8.8 °C 34405.1 hPa Calm   7.7 km/h 74 % 0 mm
07:35 -6.2 °C -8.8 °C 34405.1 hPa Calm     74 % 0 mm
07:40 -6 °C -8.4 °C 34405.1 hPa Calm     76 % 0 mm
07:45 -5.9 °C -8.3 °C 34405.1 hPa Calm     76 % 0 mm
07:50 -5.8 °C -8.5 °C 34418.7 hPa Calm     74 % 0 mm
07:55 -5.7 °C -8.6 °C 34418.7 hPa Calm     73 % 0 mm
08:00 -5.6 °C -8.6 °C 34405.1 hPa Calm     72 % 0 mm
08:05 -5.4 °C -8.2 °C 34405.1 hPa Calm     73 % 0 mm
08:10 -5.2 °C -8.4 °C 34405.1 hPa Calm     70 % 0 mm
08:15 -4.9 °C -7.8 °C 34405.1 hPa Calm   2.6 km/h 72 % 0 mm
08:20 -4.8 °C -7.9 °C 34418.7 hPa Calm   2.6 km/h 71 % 0 mm
08:25 -4.7 °C -7.8 °C 34418.7 hPa Calm   2.6 km/h 71 % 0 mm
08:30 -4.7 °C -7.6 °C 34418.7 hPa Calm     72 % 0 mm
08:35 -4.7 °C -8 °C 34418.7 hPa NE 2.6 km/h 2.6 km/h 69 % 0 mm
08:40 -4.6 °C -7.8 °C 34418.7 hPa Calm   2.6 km/h 70 % 0 mm
08:45 -4.6 °C -7.6 °C 34418.7 hPa Calm   2.6 km/h 72 % 0 mm
08:50 -4.5 °C -7.6 °C 34418.7 hPa Calm   2.6 km/h 71 % 0 mm
08:55 -4.5 °C -7.5 °C 34418.7 hPa Calm   2.6 km/h 72 % 0 mm
09:00 -4.4 °C -7.4 °C 34418.7 hPa Calm   2.6 km/h 72 % 0 mm
09:05 -4.4 °C -7.2 °C 34418.7 hPa Calm     73 % 0 mm
09:10 -4.3 °C -7.3 °C 34418.7 hPa Calm     72 % 0 mm
09:15 -4.3 °C -7.2 °C 34418.7 hPa Calm   2.6 km/h 73 % 0 mm
09:20 -4.2 °C -7.3 °C 34418.7 hPa Calm   2.6 km/h 71 % 0 mm
09:25 -4.1 °C -7.3 °C 34405.1 hPa Calm   2.6 km/h 70 % 0 mm
09:30 -4.1 °C -7.6 °C 34405.1 hPa Calm   2.6 km/h 68 % 0 mm
09:35 -4 °C -7.8 °C 34405.1 hPa Calm   5.1 km/h 66 % 0 mm
09:40 -3.8 °C -7.7 °C 34405.1 hPa East 2.6 km/h 5.1 km/h 65 % 0 mm
09:45 -3.6 °C -7.6 °C 34405.1 hPa Calm   7.7 km/h 65 % 0 mm
09:50 -3.4 °C -7.4 °C 34405.1 hPa Calm   7.7 km/h 64 % 0 mm
09:55 -3.2 °C -7.9 °C 34405.1 hPa Calm   7.7 km/h 60 % 0 mm
10:00 -3.1 °C -7.4 °C 34405.1 hPa Calm   10.3 km/h 62 % 0 mm
10:05 -2.9 °C -7.2 °C 34405.1 hPa Calm   10.3 km/h 63 % 0 mm
10:11 -2.9 °C -7 °C 34405.1 hPa Calm   10.3 km/h 64 % 0 mm
10:16 -2.8 °C -7.1 °C 34405.1 hPa Calm   7.7 km/h 63 % 0 mm
10:21 -2.7 °C -6.8 °C 34405.1 hPa Calm   7.7 km/h 64 % 0 mm
10:26 -2.6 °C -7 °C 34405.1 hPa North 2.6 km/h 7.7 km/h 62 % 0 mm
10:31 -2.7 °C -7.3 °C 34405.1 hPa Calm   7.7 km/h 60 % 0 mm
10:36 -2.7 °C -7.5 °C 34405.1 hPa Calm   7.7 km/h 59 % 0 mm
10:41 -2.6 °C -7.6 °C 34405.1 hPa Calm   5.1 km/h 58 % 0 mm
10:46 -2.4 °C -7.3 °C 34418.7 hPa Calm   5.1 km/h 59 % 0 mm
10:51 -2.3 °C -7.7 °C 34405.1 hPa Calm   5.1 km/h 56 % 0 mm
10:56 -2.3 °C -7.7 °C 34418.7 hPa Calm     56 % 0 mm
11:01 -2.3 °C -7.8 °C 34418.7 hPa Calm     55 % 0 mm
11:06 -2.3 °C -7.4 °C 34418.7 hPa Calm     57 % 0 mm
11:11 -2.3 °C -7.3 °C 34418.7 hPa Calm   2.6 km/h 58 % 0 mm
11:16 -2.3 °C -7.3 °C 34418.7 hPa Calm   2.6 km/h 58 % 0 mm
11:21 -2.3 °C -7.5 °C 34418.7 hPa South 7.7 km/h 7.7 km/h 57 % 0 mm
11:26 -2.3 °C -7.2 °C 34418.7 hPa South 10.3 km/h 10.3 km/h 59 % 0 mm
11:31 -2.4 °C -7.2 °C 34418.7 hPa Calm   12.9 km/h 59 % 0 mm
11:36 -2.6 °C -7.9 °C 34418.7 hPa South 5.1 km/h 18.2 km/h 56 % 0 mm
11:41 -2.7 °C -7.9 °C 34418.7 hPa Calm   25.9 km/h 57 % 0 mm
11:46 -2.8 °C -7.7 °C 34418.7 hPa WSW 2.6 km/h 25.9 km/h 59 % 0 mm
11:51 -2.8 °C -7.5 °C 34418.7 hPa Calm   25.9 km/h 60 % 0 mm
11:56 -2.9 °C -8 °C 34418.7 hPa SW 2.6 km/h 28.5 km/h 57 % 0 mm
12:01 -2.8 °C -7.7 °C 34405.1 hPa SSW 12.9 km/h 28.5 km/h 59 % 0 mm
12:06 -2.7 °C -7.7 °C 34405.1 hPa SSW 20.8 km/h 28.5 km/h 58 % 0 mm
12:11 -2.7 °C -7.9 °C 34405.1 hPa SW 2.6 km/h 20.8 km/h 56 % 0 mm
12:16 -2.5 °C -7.8 °C 34405.1 hPa SE 12.9 km/h 20.8 km/h 56 % 0 mm
12:22 -2.4 °C -8.2 °C 34405.1 hPa Calm   20.8 km/h 53 % 0 mm
12:27 -2.4 °C -9.1 °C 34405.1 hPa SSW 5.1 km/h 12.9 km/h 48 % 0 mm
12:32 -2.4 °C -8.9 °C 34405.1 hPa Calm   12.9 km/h 49 % 0 mm
12:37 -2.4 °C -8.6 °C 34405.1 hPa Calm   12.9 km/h 51 % 0 mm
12:42 -2.3 °C -8.8 °C 34405.1 hPa Calm   12.9 km/h 49 % 0 mm
12:47 -2.3 °C -8.1 °C 34405.1 hPa Calm   10.3 km/h 53 % 0 mm
12:52 -2.3 °C -8.3 °C 34405.1 hPa Calm   10.3 km/h 52 % 0 mm
12:57 -2.3 °C -7.8 °C 34405.1 hPa Calm   10.3 km/h 55 % 0 mm
13:02 -2.3 °C -8.2 °C 34405.1 hPa Calm   7.7 km/h 53 % 0 mm
13:07 -2.3 °C -7.9 °C 34405.1 hPa South 2.6 km/h 7.7 km/h 54 % 0 mm
13:12 -2.2 °C -7.8 °C 34405.1 hPa SE 2.6 km/h 7.7 km/h 54 % 0 mm
13:17 -2.2 °C -8 °C 34395 hPa Calm   10.3 km/h 53 % 0 mm
13:22 -2.2 °C -7.9 °C 34395 hPa SE 5.1 km/h 12.9 km/h 54 % 0 mm
13:27 -2.3 °C -7.8 °C 34395 hPa ENE 2.6 km/h 20.8 km/h 55 % 0 mm
13:32 -2.2 °C -7.3 °C 34395 hPa Calm   25.9 km/h 57 % 0 mm
13:37 -2.2 °C -7.5 °C 34395 hPa Calm   25.9 km/h 56 % 0 mm
13:42 -2.2 °C -7.3 °C 34395 hPa Calm   25.9 km/h 57 % 0 mm
13:47 -2 °C -7.5 °C 34405.1 hPa NW 5.1 km/h 15.6 km/h 55 % 0 mm
13:52 -2.1 °C -7.6 °C 34405.1 hPa Calm   15.6 km/h 55 % 0 mm
13:57 -2.2 °C -7.7 °C 34405.1 hPa Calm   15.6 km/h 55 % 0 mm
14:02 -2.3 °C -7.6 °C 34395 hPa Calm   10.3 km/h 56 % 0 mm
14:07 -2.2 °C -7.2 °C 34395 hPa Calm   7.7 km/h 58 % 0 mm
14:12 -2.3 °C -7.4 °C 34395 hPa Calm   5.1 km/h 57 % 0 mm
14:17 -2.3 °C -7.3 °C 34395 hPa Calm   7.7 km/h 58 % 0 mm
14:22 -2.3 °C -7.3 °C 34395 hPa Calm   7.7 km/h 58 % 0 mm
14:27 -2.2 °C -7.2 °C 34395 hPa West 10.3 km/h 10.3 km/h 58 % 0 mm
14:32 -2.2 °C -7.8 °C 34395 hPa West 10.3 km/h 20.8 km/h 54 % 0 mm
14:37 -2.2 °C -7.7 °C 34395 hPa Calm   20.8 km/h 55 % 0 mm
14:42 -2.1 °C -7.9 °C 34395 hPa SW 5.1 km/h 25.9 km/h 53 % 0 mm
14:47 -2.2 °C -8.2 °C 34395 hPa WSW 2.6 km/h 25.9 km/h 52 % 0 mm
14:52 -2.3 °C -8.1 °C 34395 hPa Calm   25.9 km/h 53 % 0 mm
14:57 -2.4 °C -8.1 °C 34395 hPa Calm   23.3 km/h 54 % 0 mm
15:02 -2.5 °C -7.9 °C 34395 hPa SW 2.6 km/h 18.2 km/h 55 % 0 mm
15:07 -2.6 °C -8 °C 34384.8 hPa SW 7.7 km/h 18.2 km/h 55 % 0 mm
15:12 -2.7 °C -7.9 °C 34384.8 hPa SW 2.6 km/h 18.2 km/h 56 % 0 mm
15:17 -2.8 °C -7.8 °C 34384.8 hPa Calm   12.9 km/h 58 % 0 mm
15:22 -2.9 °C -7.8 °C 34384.8 hPa Calm   12.9 km/h 59 % 0 mm
15:27 -3 °C -7.8 °C 34384.8 hPa Calm   12.9 km/h 59 % 0 mm
15:32 -3.1 °C -7.6 °C 34384.8 hPa Calm   2.6 km/h 61 % 0 mm
15:37 -3 °C -7.7 °C 34384.8 hPa Calm     60 % 0 mm
15:42 -2.7 °C -7.4 °C 34384.8 hPa Calm     60 % 0 mm
15:47 -2.4 °C -7.6 °C 34371.3 hPa Calm     57 % 0 mm
15:52 -2.3 °C -7.3 °C 34371.3 hPa Calm   10.3 km/h 58 % 0 mm
15:57 -2.2 °C -7.7 °C 34361.1 hPa Calm   10.3 km/h 55 % 0 mm
16:02 -2.2 °C -7.3 °C 34361.1 hPa Calm   10.3 km/h 57 % 0 mm
16:07 -2.2 °C -7.8 °C 34361.1 hPa Calm   10.3 km/h 54 % 0 mm
16:12 -2.2 °C -7.8 °C 34361.1 hPa Calm   10.3 km/h 54 % 0 mm
16:17 -2.2 °C -7.5 °C 34361.1 hPa Calm   5.1 km/h 56 % 0 mm
16:22 -2.3 °C -7.3 °C 34361.1 hPa Calm     58 % 0 mm
16:26 -2.4 °C -7.4 °C 34361.1 hPa Calm   2.6 km/h 58 % 0 mm
16:31 -2.6 °C -7.6 °C 34361.1 hPa Calm   7.7 km/h 58 % 0 mm
16:36 -2.7 °C -7.9 °C 34361.1 hPa Calm   7.7 km/h 57 % 0 mm
16:41 -2.9 °C -8.2 °C 34371.3 hPa Calm   7.7 km/h 56 % 0 mm
16:46 -3.1 °C -8.9 °C 34371.3 hPa Calm   7.7 km/h 53 % 0 mm
16:51 -3.2 °C -9.1 °C 34371.3 hPa WSW 23.3 km/h 25.9 km/h 52 % 0 mm
16:56 -3.4 °C -9.1 °C 34384.8 hPa West 2.6 km/h 25.9 km/h 53 % 0 mm
17:01 -3.7 °C -8.2 °C 34384.8 hPa NW 31.1 km/h 54.4 km/h 61 % 0 mm
17:06 -4.2 °C -8.2 °C 34395 hPa NW 15.6 km/h 54.4 km/h 64 % 0 mm
17:11 -4.6 °C -8.3 °C 34395 hPa NW 12.9 km/h 54.4 km/h 66 % 0 mm
17:16 -4.9 °C -8.3 °C 34395 hPa Calm   38.8 km/h 69 % 0 mm
17:21 -5.2 °C -8.5 °C 34384.8 hPa North 2.6 km/h 20.8 km/h 69 % 0 mm
17:26 -5.4 °C -8.4 °C 34384.8 hPa North 2.6 km/h 18.2 km/h 71 % 0 mm
17:31 -5.4 °C -8.3 °C 34384.8 hPa North 5.1 km/h 12.9 km/h 72 % 0 mm
17:36 -5.4 °C -8.3 °C 34384.8 hPa North 2.6 km/h 15.6 km/h 73 % 0 mm
17:41 -5.4 °C -8.4 °C 34384.8 hPa North 5.1 km/h 15.6 km/h 72 % 0 mm
17:46 -5.4 °C -8.3 °C 34371.3 hPa Calm   15.6 km/h 73 % 0 mm
17:51 -5.4 °C -7.9 °C 34371.3 hPa Calm   12.9 km/h 75 % 0 mm
17:56 -5.3 °C -7.8 °C 34371.3 hPa Calm   12.9 km/h 76 % 0 mm
18:01 -5.3 °C -7.7 °C 34371.3 hPa Calm   7.7 km/h 76 % 0 mm
18:06 -5.2 °C -7.7 °C 34371.3 hPa Calm   7.7 km/h 76 % 0 mm
18:11 -5.2 °C -7.7 °C 34371.3 hPa Calm     76 % 0 mm
18:16 -5.2 °C -7.7 °C 34371.3 hPa Calm     76 % 0 mm
18:21 -5.1 °C -7.3 °C 34384.8 hPa North 2.6 km/h 5.1 km/h 78 % 0 mm
18:26 -5.2 °C -7.5 °C 34384.8 hPa Calm   10.3 km/h 77 % 0 mm
18:31 -5.2 °C -7.7 °C 34384.8 hPa Calm   12.9 km/h 76 % 0 mm
18:36 -5.3 °C -7.8 °C 34384.8 hPa NE 5.1 km/h 12.9 km/h 76 % 0 mm
18:41 -5.4 °C -7.8 °C 34384.8 hPa North 12.9 km/h 15.6 km/h 77 % 0 mm
18:47 -5.6 °C -8.2 °C 34384.8 hPa NE 10.3 km/h 23.3 km/h 75 % 0 mm
18:52 -5.7 °C -8.1 °C 34384.8 hPa ENE 5.1 km/h 25.9 km/h 77 % 0 mm
18:57 -5.9 °C -8.3 °C 34384.8 hPa East 5.1 km/h 25.9 km/h 76 % 0 mm
19:02 -6 °C -8.4 °C 34384.8 hPa ENE 10.3 km/h 28.5 km/h 76 % 0 mm
19:07 -6.2 °C -8.6 °C 34384.8 hPa NE 2.6 km/h 28.5 km/h 76 % 0 mm
19:12 -6.2 °C -8.6 °C 34371.3 hPa East 12.9 km/h 28.5 km/h 77 % 0 mm
19:17 -6.3 °C -8.5 °C 34384.8 hPa NE 5.1 km/h 28.5 km/h 78 % 0 mm
19:22 -6.3 °C -8.4 °C 34371.3 hPa Calm   25.9 km/h 79 % 0 mm
19:27 -6.2 °C -8.3 °C 34371.3 hPa NE 5.1 km/h 25.9 km/h 79 % 0 mm
19:32 -6.2 °C -8.4 °C 34371.3 hPa SSE 7.7 km/h 18.2 km/h 78 % 0 mm
19:37 -6.2 °C -8.4 °C 34371.3 hPa NE 5.1 km/h 20.8 km/h 78 % 0 mm
19:42 -6.2 °C -8.4 °C 34371.3 hPa Calm   23.3 km/h 78 % 0 mm
19:47 -6.1 °C -8.2 °C 34371.3 hPa Calm   25.9 km/h 79 % 0 mm
19:52 -6.1 °C -8.2 °C 34371.3 hPa Calm   25.9 km/h 79 % 0 mm
19:57 -6.1 °C -8.2 °C 34371.3 hPa Calm   25.9 km/h 79 % 0 mm
20:02 -6 °C -8 °C 34384.8 hPa Calm   12.9 km/h 80 % 0 mm
20:07 -5.9 °C -7.9 °C 34384.8 hPa Calm   12.9 km/h 80 % 0 mm
20:12 -5.9 °C -7.9 °C 34384.8 hPa ESE 15.6 km/h 18.2 km/h 80 % 0 mm
20:17 -5.9 °C -7.9 °C 34384.8 hPa SE 7.7 km/h 18.2 km/h 80 % 0 mm
20:22 -5.9 °C -7.9 °C 34384.8 hPa SE 5.1 km/h 23.3 km/h 80 % 0 mm
20:27 -5.9 °C -7.9 °C 34384.8 hPa ESE 5.1 km/h 23.3 km/h 80 % 0 mm
20:32 -5.9 °C -8 °C 34371.3 hPa East 18.2 km/h 23.3 km/h 79 % 0 mm
20:37 -5.9 °C -8.1 °C 34384.8 hPa Calm   18.2 km/h 78 % 0 mm
20:42 -5.9 °C -8.2 °C 34384.8 hPa SE 2.6 km/h 25.9 km/h 77 % 0 mm
20:47 -5.9 °C -8.3 °C 34384.8 hPa Calm   25.9 km/h 76 % 0 mm
20:52 -5.9 °C -8.3 °C 34384.8 hPa ESE 7.7 km/h 25.9 km/h 76 % 0 mm
20:57 -5.9 °C -8.3 °C 34384.8 hPa SE 10.3 km/h 25.9 km/h 76 % 0 mm
21:02 -5.9 °C -8.6 °C 34384.8 hPa Calm   25.9 km/h 74 % 0 mm
21:07 -5.9 °C -8.6 °C 34384.8 hPa Calm   23.3 km/h 74 % 0 mm
21:12 -5.9 °C -8.6 °C 34384.8 hPa Calm   23.3 km/h 74 % 0 mm
21:17 -5.9 °C -8.6 °C 34384.8 hPa Calm   20.8 km/h 74 % 0 mm
21:22 -6 °C -8.9 °C 34384.8 hPa ESE 2.6 km/h 20.8 km/h 72 % 0 mm
21:27 -6 °C -8.9 °C 34384.8 hPa Calm   10.3 km/h 72 % 0 mm
21:32 -6.1 °C -8.8 °C 34384.8 hPa Calm   10.3 km/h 73 % 0 mm
21:37 -6.2 °C -9.1 °C 34371.3 hPa Calm   10.3 km/h 72 % 0 mm
21:42 -6.2 °C -9.5 °C 34371.3 hPa Calm   15.6 km/h 69 % 0 mm
21:47 -6.3 °C -9.4 °C 34384.8 hPa Calm   15.6 km/h 70 % 0 mm
Météo
Compliments of Weather Underground - 2 mb

Script développé par  Jim McMurry - jmcmurry@mwt.net Adapté pour le modèle par  Wim van der Kuil - Leuven-Template.eu

Vous trouverez notre info météo Également à:

Weather Underground

Équipement que nous utilisons:

Station de Météo
Davis VP2

Programme Météo
Meteohub

Ordinateur Météo
RaspberryPI 2

Provider
OVH

Davis VP2

Meteohub

RaspberryPI 2

OVH